Zurück zum Katalog

IRS 1B

AktivWissenschaftSSO
NORAD 21688·PAYLOAD·🇮🇳 India

Gestartet Aug 29, 1991 von Baikonur Cosmodrome

Loading…

Nächste Überflüge (nächste 24 Stunden)

TLE

AktuellSource: Space-Track

Epoche: Sep 14, 2026, 19:48 UTC

1 21688U 91061A   26257.82522056 -.00000197  00000-0 -10610-3 0  9994
2 21688  99.4136 268.0178 0025127 119.1565  53.0671 13.97882975681013

Verfolge IRS 1B in Echtzeit mit AllMySat

Download on the App Store